FW5112 Weather Reports


time (UTC)temp
C
wind
direction
speed
KPH
gust
KPH
rain 1hr
cm
rain 24hr
cm
rain mn
cm
humidity
%
barometer
mb
20210920061519 25 192 0.0 3.2 0.00 0.00 0.00 79 1010.3
20210920060518 25 190 0.0 3.2 0.00 0.00 0.00 79 1010.3
20210920055519 25 221 0.0 6.4 0.00 0.00 0.00 79 1010.3
20210920054532 25 194 0.0 3.2 0.00 0.00 0.00 79 1010.3
20210920053526 25 199 0.0 3.2 0.00 0.00 0.00 78 1010.4
20210920052526 25 217 0.0 3.2 0.00 0.00 0.00 78 1010.6
20210920051521 25 193 0.0 6.4 0.00 0.00 0.00 77 1010.7
20210920050518 26 227 0.0 3.2 0.00 0.00 0.00 77 1010.7
20210920045532 26 193 0.0 3.2 0.00 0.00 0.00 76 1010.8
20210920044525 26 203 0.0 6.4 0.00 0.00 0.00 74 1011.0
20210920043520 26 203 0.0 6.4 0.00 0.00 0.00 74 1011.0
20210920042518 26 196 0.0 3.2 0.00 0.00 0.00 73 1011.0
20210920041531 26 206 0.0 3.2 0.00 0.00 0.00 72 1011.0
20210920040527 26 187 0.0 3.2 0.00 0.00 0.00 71 1011.0
20210920035526 27 195 0.0 6.4 0.00 0.00 0.00 70 1011.3
20210920034525 27 187 1.6 6.4 0.00 0.00 0.00 70 1011.4
20210920033518 27 193 1.6 6.4 0.00 0.00 0.00 70 1011.4
20210920032529 27 179 0.0 3.2 0.00 0.00 0.00 71 1011.4
20210920031531 27 188 0.0 3.2 0.00 0.00 0.00 70 1011.4
20210920030520 27 199 1.6 6.4 0.00 0.00 0.00 69 1011.4
20210920025525 28 227 0.0 3.2 0.00 0.00 0.00 68 1011.4
20210920024519 28 0.0 0.0 0.00 0.00 0.00 68 1011.3
20210920023517 28 202 0.0 3.2 0.00 0.00 0.00 67 1011.1
20210920022530 28 204 0.0 3.2 0.00 0.00 0.00 67 1011.0
20210920021531 28 0.0 0.0 0.00 0.00 0.00 65 1011.0
20210920020526 28 200 0.0 3.2 0.00 0.00 0.00 64 1010.7
20210920015526 29 225 0.0 3.2 0.00 0.00 0.00 63 1010.6
20210920014522 29 199 0.0 6.4 0.00 0.00 0.00 62 1010.3
20210920013526 29 204 3.2 11.3 0.00 0.00 0.00 60 1010.3
20210920012525 29 207 1.6 6.4 0.00 0.00 0.00 59 1010.0
20210920011518 30 0.0 0.0 0.00 0.00 0.00 60 1009.9
20210920010530 30 0.0 0.0 0.00 0.00 0.00 60 1009.9
20210920005526 30 0.0 0.0 0.00 0.00 0.00 58 1010.0
20210920004525 30 0.0 0.0 0.00 0.00 0.00 56 1009.8
20210920003521 31 195 0.0 3.2 0.00 0.00 0.00 55 1009.9
20210920002529 31 205 0.0 3.2 0.00 0.00 0.00 53 1009.8
20210920001526 31 195 0.0 3.2 0.00 0.00 0.00 52 1009.8
20210920000530 31 191 0.0 6.4 0.00 0.00 0.00 51 1009.7
20210919235526 31 194 0.0 3.2 0.00 0.00 0.00 51 1009.6
20210919234518 31 195 0.0 3.2 0.00 0.00 0.00 50 1009.6
20210919233528 31 242 0.0 3.2 0.00 0.00 0.00 50 1009.6
20210919232526 32 204 1.6 11.3 0.00 0.00 0.00 48 1009.6
20210919231526 32 203 1.6 11.3 0.00 0.00 0.00 51 1009.9
20210919230526 32 203 0.0 3.2 0.00 0.00 0.00 51 1009.6
20210919225518 32 211 3.2 11.3 0.00 0.00 0.00 51 1009.6
20210919224525 32 302 0.0 3.2 0.00 0.00 0.00 49 1009.7
20210919223525 32 210 1.6 11.3 0.00 0.00 0.00 49 1009.6
20210919222526 32 213 0.0 6.4 0.00 0.00 0.00 51 1009.8
20210919221526 32 206 3.2 6.4 0.00 0.00 0.00 52 1009.8
20210919220528 32 199 1.6 6.4 0.00 0.00 0.00 51 1010.0
20210919215525 32 201 0.0 6.4 0.00 0.00 0.00 50 1009.9
20210919214519 32 208 0.0 6.4 0.00 0.00 0.00 49 1010.0
20210919213531 32 204 0.0 6.4 0.00 0.00 0.00 48 1010.0
20210919212529 32 211 3.2 14.5 0.00 0.00 0.00 49 1010.3
20210919211522 32 197 0.0 3.2 0.00 0.00 0.00 49 1010.3
20210919210526 32 198 3.2 14.5 0.00 0.00 0.00 51 1010.3
20210919205525 32 211 1.6 11.3 0.00 0.00 0.00 51 1010.4
20210919204517 32 199 1.6 6.4 0.00 0.00 0.00 51 1010.7
20210919203517 32 206 1.6 11.3 0.00 0.00 0.00 52 1011.0
20210919202530 32 259 0.0 6.4 0.00 0.00 0.00 51 1011.0
20210919201532 32 86 0.0 3.2 0.00 0.00 0.00 52 1011.3
20210919200529 32 211 0.0 6.4 0.00 0.00 0.00 50 1011.6
20210919195520 32 181 0.0 3.2 0.00 0.00 0.00 51 1011.7
20210919194518 32 209 1.6 6.4 0.00 0.00 0.00 51 1012.0
20210919193525 32 202 1.6 11.3 0.00 0.00 0.00 52 1012.1
20210919192530 32 230 3.2 11.3 0.00 0.00 0.00 52 1012.5
20210919191518 32 216 3.2 6.4 0.00 0.00 0.00 52 1012.7
20210919190525 32 211 3.2 11.3 0.00 0.00 0.00 53 1013.0
20210919185517 32 235 3.2 11.3 0.00 0.00 0.00 53 1013.1
20210919184531 32 246 1.6 11.3 0.00 0.00 0.00 53 1013.2
20210919183518 32 237 1.6 11.3 0.00 0.00 0.00 54 1013.3
20210919182517 32 206 0.0 6.4 0.00 0.00 0.00 54 1013.4
20210919181519 32 205 1.6 11.3 0.00 0.00 0.00 54 1013.8
20210919180530 32 219 1.6 6.4 0.00 0.00 0.00 56 1013.8
20210919175516 32 212 1.6 6.4 0.00 0.00 0.00 58 1013.9
20210919174525 32 199 0.0 3.2 0.00 0.00 0.00 57 1014.1
20210919173519 31 209 0.0 6.4 0.00 0.00 0.00 57 1014.2
20210919172529 31 232 1.6 11.3 0.00 0.00 0.00 61 1014.4
20210919171526 31 221 0.0 6.4 0.00 0.00 0.00 59 1014.7
20210919170529 31 204 0.0 6.4 0.00 0.00 0.00 62 1014.8
20210919165525 30 213 1.6 11.3 0.00 0.00 0.00 61 1014.8
20210919164525 29 194 0.0 6.4 0.00 0.00 0.00 62 1014.8
20210919163527 29 212 1.6 6.4 0.00 0.00 0.00 68 1014.8
20210919162525 30 204 1.6 6.4 0.00 0.00 0.00 70 1015.1
20210919161517 30 242 0.0 6.4 0.00 0.00 0.00 65 1015.2
20210919160525 30 298 0.0 3.2 0.00 0.00 0.00 67 1015.2
20210919155525 30 231 0.0 6.4 0.00 0.00 0.00 66 1015.2
20210919154517 29 210 1.6 6.4 0.00 0.00 0.00 68 1015.2
20210919153530 29 216 1.6 6.4 0.00 0.00 0.00 67 1015.1
20210919152525 28 213 0.0 6.4 0.00 0.00 0.00 70 1015.0
20210919151525 28 207 1.6 6.4 0.00 0.00 0.00 70 1014.9
20210919150518 28 216 1.6 6.4 0.00 0.00 0.00 72 1015.0
20210919145530 27 203 0.0 6.4 0.00 0.00 0.00 71 1015.0
20210919144527 27 199 1.6 6.4 0.00 0.00 0.00 72 1014.8
20210919143525 26 223 1.6 6.4 0.00 0.00 0.00 75 1014.8
20210919142526 26 217 0.0 3.2 0.00 0.00 0.00 75 1014.8
20210919141525 26 226 1.6 6.4 0.00 0.00 0.00 78 1014.7
20210919140524 26 210 1.6 6.4 0.00 0.00 0.00 78 1014.7
20210919135517 25 203 0.0 6.4 0.00 0.00 0.00 75 1014.7
20210919134530 25 209 0.0 3.2 0.00 0.00 0.00 76 1014.5
20210919133526 24 0.0 0.0 0.00 0.00 0.00 80 1014.7
20210919132520 23 199 0.0 3.2 0.00 0.00 0.00 83 1014.8
20210919131516 23 222 0.0 3.2 0.00 0.00 0.00 82 1014.8
20210919130531 22 0.0 0.0 0.00 0.00 0.00 84 1014.5
20210919125529 21 0.0 0.0 0.00 0.00 0.00 90 1014.5
20210919124529 21 0.0 0.0 0.00 0.00 0.00 94 1014.4
20210919123528 21 0.0 0.0 0.00 0.00 0.00 94 1014.2
20210919122524 21 0.0 0.0 0.00 0.00 0.00 93 1014.1
20210919121525 21 0.0 0.0 0.00 0.00 0.00 93 1014.1
20210919120525 21 0.0 0.0 0.00 0.00 0.00 93 1014.1
20210919115525 21 0.0 0.0 0.00 0.00 0.00 92 1014.1
20210919114520 21 0.0 0.0 0.00 0.00 0.00 92 1014.1
20210919113521 22 0.0 0.0 0.00 0.00 0.00 92 1014.1
20210919112528 22 0.0 0.0 0.00 0.00 0.00 92 1014.1
20210919111517 22 0.0 0.0 0.00 0.00 0.00 92 1014.2
20210919110520 22 0.0 0.0 0.00 0.00 0.00 92 1014.1
20210919105521 22 0.0 0.0 0.00 0.00 0.00 91 1014.1
20210919104520 22 0.0 0.0 0.00 0.00 0.00 91 1014.1
20210919103525 22 0.0 0.0 0.00 0.00 0.00 91 1014.1
20210919102529 22 0.0 0.0 0.00 0.00 0.00 91 1014.1
20210919101518 22 0.0 0.0 0.00 0.00 0.00 90 1014.1
20210919100525 22 0.0 0.0 0.00 0.00 0.00 90 1014.1
20210919095529 22 0.0 0.0 0.00 0.00 0.00 90 1014.1
20210919094516 23 0.0 0.0 0.00 0.00 0.00 90 1014.1
20210919093525 23 0.0 0.0 0.00 0.00 0.00 89 1014.1
20210919092516 23 0.0 0.0 0.00 0.00 0.00 89 1014.1
20210919091524 23 0.0 0.0 0.00 0.00 0.00 89 1014.1
20210919090525 23 0.0 0.0 0.00 0.00 0.00 88 1014.2
20210919085516 23 0.0 0.0 0.00 0.00 0.00 88 1014.3
20210919084518 23 0.0 0.0 0.00 0.00 0.00 88 1014.5
20210919083517 23 0.0 0.0 0.00 0.00 0.00 88 1014.3
20210919082519 23 0.0 0.0 0.00 0.00 0.00 88 1014.5
20210919081520 23 0.0 0.0 0.00 0.00 0.00 87 1014.5
20210919080517 23 0.0 0.0 0.00 0.00 0.00 87 1014.5
20210919075516 24 0.0 0.0 0.00 0.00 0.00 87 1014.5
20210919074529 24 0.0 0.0 0.00 0.00 0.00 86 1014.5
20210919073531 24 0.0 0.0 0.00 0.00 0.00 85 1014.5
20210919072518 25 0.0 0.0 0.00 0.00 0.00 84 1014.5
20210919071524 25 208 0.0 6.4 0.00 0.00 0.00 84 1014.7
20210919070528 25 0.0 0.0 0.00 0.00 0.00 85 1014.8
20210919065516 25 0.0 0.0 0.00 0.00 0.00 84 1014.8
20210919064525 25 0.0 0.0 0.00 0.00 0.00 83 1014.8
20210919063524 25 0.0 0.0 0.00 0.00 0.00 82 1014.8
20210919062516 25 0.0 0.0 0.00 0.00 0.00 81 1014.8